(167498) = 2000 AX38 = 2003 YV85

Discovered at Socorro on 2003-12-19 by LINEAR.

Orbit

Orbit type: Main Belt

Note: WebGL enabled browser required.

epoch2024-03-31.0
epoch JD2460400.5
perihelion date2020-06-22.39045
perihelion JD2459022.89045
argument of perihelion (°)278.69493
ascending node (°)99.15974
inclination (°)17.60980
eccentricity0.2213345
perihelion distance (AU)2.0467249
Tisserand w.r.t. Jupiter3.3
ΔV w.r.t. Earth (km/sec)10.4
semimajor axis (AU)2.6285035
mean anomaly (°)318.61569
mean daily motion (°/day)0.23128160
aphelion distance (AU)3.210
period (years)4.26
P-vector [x]0.90610545
P-vector [y]0.39349551
P-vector [z]-0.15535184
Q-vector [x]-0.29960981
Q-vector [y]0.85613598
Q-vector [z]0.42102868
absolute magnitude15.58
phase slope0.15
uncertainty0
referenceMPEC 2024-D122
observations used685
oppositions16
arc length (days)8588
first opposition used2000
last opposition used2023
residual rms (arc-secs)0.75
perturbers coarse indicatorM-v
perturbers precise indicator003Ek
first observation date used2000-01-03.0
last observation date used2023-07-09.0
computer nameMPCLINUX
JD of orbit computation2456937.257243
perihelion JD uncertainty (days)6.9421E-05
argument of perihelion uncertainty (°)2.5809E-05
ascending node uncertainty (°)2.3696E-05
inclination uncertainty (°)5.4089E-06
eccentricity uncertainty 7.5591E-08
perihelion distance uncertainty (AU)2.0850E-07
Minimum Orbit Intersection Distances (in AU)
for orbit epoch: 2460400.5, reference: E2024-DC2
Mercury1.71021
Venus1.35675
Earth1.13442
Mars0.73655
Jupiter2.47518
Saturn6.419
Uranus15.4527
Neptune27.5434

Observations

698 total observations over interval: 2000 01 03.31919 – 2023 07 09.266191
These data are available for download (format description).

Date (UT) J2000 RA J2000 Dec Magn Location Ref
2000 01 03.31919 08 25 52.88 +26 54 49.6 19.4   704 – Lincoln Laboratory ETS, New Mexico MPS 9257
2000 01 03.33391 08 25 52.05 +26 54 59.9 19.1   704 – Lincoln Laboratory ETS, New Mexico MPS 9257
2000 01 03.34864 08 25 51.19 +26 55 09.9 19.3   704 – Lincoln Laboratory ETS, New Mexico MPS 9257
2000 01 03.36348 08 25 50.46 +26 55 19.3 19.4   704 – Lincoln Laboratory ETS, New Mexico MPS 9257
2000 01 04.30281 08 24 59.65 +27 05 16.2 19.3   704 – Lincoln Laboratory ETS, New Mexico MPS 9257
2000 01 04.31739 08 24 58.78 +27 05 26.2 19.6   704 – Lincoln Laboratory ETS, New Mexico MPS 9257
2000 01 04.33193 08 24 57.96 +27 05 34.6 19.9   704 – Lincoln Laboratory ETS, New Mexico MPS 9257
2000 01 04.34663 08 24 57.21 +27 05 45.0 19.6   704 – Lincoln Laboratory ETS, New Mexico MPS 9257
2000 01 29.24739 07 59 05.09 +30 58 18.2 18.8   704 – Lincoln Laboratory ETS, New Mexico MPS 97607
2000 01 29.26310 07 59 04.06 +30 58 25.4 19.2   704 – Lincoln Laboratory ETS, New Mexico MPS 97607
2000 01 29.27915 07 59 03.08 +30 58 32.2 18.8   704 – Lincoln Laboratory ETS, New Mexico MPS 97607
2000 01 29.31048 07 59 00.93 +30 58 45.1 19.2   704 – Lincoln Laboratory ETS, New Mexico MPS 97607
2003 12 01.32885 06 07 16.59 +14 07 00.4 19.0   704 – Lincoln Laboratory ETS, New Mexico MPS 97851
2003 12 01.34174 06 07 15.87 +14 07 06.1 19.2   704 – Lincoln Laboratory ETS, New Mexico MPS 97851
2003 12 01.35470 06 07 15.10 +14 07 12.2 19.4   704 – Lincoln Laboratory ETS, New Mexico MPS 97851
2003 12 01.36765 06 07 14.38 +14 07 16.7 19.3   704 – Lincoln Laboratory ETS, New Mexico MPS 97851
2003 12 01.38055 06 07 13.72 +14 07 21.8 19.3   704 – Lincoln Laboratory ETS, New Mexico MPS 97851
2003 12 19.32848 05 48 06.16 +16 35 20.7 18.2   704 – Lincoln Laboratory ETS, New Mexico MPS 94967
2003 12 19.34214 05 48 05.21 +16 35 28.2 18.6   704 – Lincoln Laboratory ETS, New Mexico MPS 94967
2003 12 19.35729 05 48 04.16 +16 35 36.1 18.6   704 – Lincoln Laboratory ETS, New Mexico MPS 94967
2003 12 19.37404 05 48 02.97 +16 35 44.9 18.7   704 – Lincoln Laboratory ETS, New Mexico MPS 94967
2003 12 19.39357 05 48 01.61 +16 35 55.2 18.6   704 – Lincoln Laboratory ETS, New Mexico MPS 94967
2003 12 22.25978 05 44 47.35 +17 01 25.8 18.4   704 – Lincoln Laboratory ETS, New Mexico MPS 94967
2003 12 22.27261 05 44 46.46 +17 01 32.8 18.6   704 – Lincoln Laboratory ETS, New Mexico MPS 94967
2003 12 22.28547 05 44 45.57 +17 01 39.3 18.5   704 – Lincoln Laboratory ETS, New Mexico MPS 94967
2003 12 22.29809 05 44 44.66 +17 01 45.8 18.5   704 – Lincoln Laboratory ETS, New Mexico MPS 94967
2003 12 22.31068 05 44 43.78 +17 01 53.0 18.4   704 – Lincoln Laboratory ETS, New Mexico MPS 94967
2004 01 21.23792 05 19 37.64 +21 18 49.7 19.5   704 – Lincoln Laboratory ETS, New Mexico MPS 97851
2004 01 21.25063 05 19 37.34 +21 18 55.6 19.2   704 – Lincoln Laboratory ETS, New Mexico MPS 97851
2004 01 21.26341 05 19 37.05 +21 19 01.5 20.3   704 – Lincoln Laboratory ETS, New Mexico MPS 97851
2004 01 21.27661 05 19 36.60 +21 19 06.8 19.6   704 – Lincoln Laboratory ETS, New Mexico MPS 97851
2004 01 21.28958 05 19 36.20 +21 19 14.0 20.0   704 – Lincoln Laboratory ETS, New Mexico MPS 97851
2004 01 24.22404 05 18 31.97 +21 41 52.0 19.6   704 – Lincoln Laboratory ETS, New Mexico MPS 97851
2004 01 24.23664 05 18 31.75 +21 41 56.9 19.7   704 – Lincoln Laboratory ETS, New Mexico MPS 97851
2004 01 24.26168 05 18 31.33 +21 42 09.6 20.1   704 – Lincoln Laboratory ETS, New Mexico MPS 97851
2005 03 10.378717 12 42 47.925 +22 15 59.03 20.39 V 645 – Apache Point-Sloan Digital Sky Survey MPS 390118
2005 03 10.382189 12 42 47.765 +22 16 00.64 21.23   645 – Apache Point-Sloan Digital Sky Survey MPS 390118
2005 03 12.326557 12 41 17.339 +22 31 04.46 20.38 V 645 – Apache Point-Sloan Digital Sky Survey MPS 390118
2005 03 12.330029 12 41 17.164 +22 31 05.94 21.22   645 – Apache Point-Sloan Digital Sky Survey MPS 390118
2006 05 09.40159 16 59 24.64 -08 05 12.0 19.4 V G96 – Mt. Lemmon Survey MPS 171391
2006 05 09.40847 16 59 24.36 -08 05 11.9 19.4 V G96 – Mt. Lemmon Survey MPS 171391
2006 05 09.41534 16 59 24.07 -08 05 11.7 19.4 V G96 – Mt. Lemmon Survey MPS 171391
2006 05 09.42208 16 59 23.74 -08 05 11.9 19.3 V G96 – Mt. Lemmon Survey MPS 171391
2006 05 23.32891 16 47 49.99 -08 11 55.2 19.1 V 703 – Catalina Sky Survey MPS 172024
2006 05 23.33378 16 47 49.81 -08 11 55.7 19.0 V 703 – Catalina Sky Survey MPS 172024
2006 05 23.33870 16 47 49.52 -08 11 54.7 19.2 V 703 – Catalina Sky Survey MPS 172024
2006 05 23.34360 16 47 49.23 -08 11 55.2 19.4 V 703 – Catalina Sky Survey MPS 172024
2006 05 26.39130 16 44 55.75 -08 15 55.9 19.1 V G96 – Mt. Lemmon Survey MPS 172849
2006 05 26.39692 16 44 55.42 -08 15 56.3 19.0 V G96 – Mt. Lemmon Survey MPS 172849
2006 05 26.40249 16 44 55.10 -08 15 56.8 19.1 V G96 – Mt. Lemmon Survey MPS 172849
2006 05 26.40810 16 44 54.74 -08 15 57.0 18.9 V G96 – Mt. Lemmon Survey MPS 172849
2007 09 14.44273 03 23 45.99 -09 22 30.7 18.6 V 703 – Catalina Sky Survey MPS 216188
2007 09 14.44327 03 23 45.99 -09 22 31.2 18.4 V 703 – Catalina Sky Survey MPS 216188
2007 09 14.45040 03 23 46.17 -09 22 32.6 18.5 V 703 – Catalina Sky Survey MPS 216188
2007 09 14.45095 03 23 46.14 -09 22 33.2 18.6 V 703 – Catalina Sky Survey MPS 216188
2007 09 14.45809 03 23 46.32 -09 22 36.0 18.6 V 703 – Catalina Sky Survey MPS 216188
2007 09 14.45863 03 23 46.35 -09 22 36.8 18.7 V 703 – Catalina Sky Survey MPS 216188
2007 09 14.46576 03 23 46.57 -09 22 38.4 18.6 V 703 – Catalina Sky Survey MPS 216188
2007 09 14.46631 03 23 46.50 -09 22 39.5 18.3 V 703 – Catalina Sky Survey MPS 216188
2007 09 16.36339 03 24 33.19 -09 34 02.2 18.7   704 – Lincoln Laboratory ETS, New Mexico MPS 216188
2007 09 16.37542 03 24 33.42 -09 34 06.2 18.7   704 – Lincoln Laboratory ETS, New Mexico MPS 216188
2007 09 16.38725 03 24 33.64 -09 34 10.3 19.4   704 – Lincoln Laboratory ETS, New Mexico MPS 216188
2007 09 16.39877 03 24 33.84 -09 34 15.4 18.5   704 – Lincoln Laboratory ETS, New Mexico MPS 216188
2007 10 11.35809 03 22 53.58 -11 55 07.2 18.1 V 703 – Catalina Sky Survey MPS 220479
2007 10 11.36512 03 22 53.32 -11 55 08.5 18.3 V 703 – Catalina Sky Survey MPS 220479
2007 10 11.37209 03 22 53.11 -11 55 09.8 18.0 V 703 – Catalina Sky Survey MPS 220479
2007 10 11.37910 03 22 52.78 -11 55 12.5 18.0 V 703 – Catalina Sky Survey MPS 220479
2007 10 17.34274 03 19 16.93 -12 16 57.1 18.0 V 703 – Catalina Sky Survey MPS 220479
2007 10 17.35002 03 19 16.64 -12 16 58.5 18.0 V 703 – Catalina Sky Survey MPS 220479
2007 10 17.35421 03 19 16.44 -12 17 00.2 18.0 r 699 – Lowell Observatory-LONEOS MPS 220479
2007 10 17.35730 03 19 16.28 -12 16 59.6 18.1 V 703 – Catalina Sky Survey MPS 220479
2007 10 17.36460 03 19 15.96 -12 17 00.9 18.0 V 703 – Catalina Sky Survey MPS 220479
2007 10 17.37615 03 19 15.46 -12 17 03.9 17.8 r 699 – Lowell Observatory-LONEOS MPS 220479
2007 10 17.39812 03 19 14.48 -12 17 07.0 18.2 r 699 – Lowell Observatory-LONEOS MPS 220479
2007 10 17.42008 03 19 13.51 -12 17 11.4 18.0 r 699 – Lowell Observatory-LONEOS MPS 220479
2007 11 02.30105 03 05 24.75 -12 24 36.2 17.9 V 703 – Catalina Sky Survey MPS 226640
2007 11 02.30895 03 05 24.25 -12 24 35.3 18.0 V 703 – Catalina Sky Survey MPS 226640
2007 11 02.31688 03 05 23.78 -12 24 34.1 17.8 V 703 – Catalina Sky Survey MPS 226640
2007 11 02.32477 03 05 23.24 -12 24 33.1 17.8 V 703 – Catalina Sky Survey MPS 226640
2007 11 11.27428 02 56 23.82 -11 48 56.9 18.0 V 703 – Catalina Sky Survey MPS 228153
2007 11 11.28203 02 56 23.31 -11 48 54.0 18.1 V 703 – Catalina Sky Survey MPS 228153
2007 11 11.28979 02 56 22.84 -11 48 51.5 18.0 V 703 – Catalina Sky Survey MPS 228153
2007 11 11.29753 02 56 22.38 -11 48 48.7 18.0 V 703 – Catalina Sky Survey MPS 228153
2007 11 18.29858 02 49 39.07 -10 59 46.8 18.1 V 703 – Catalina Sky Survey MPS 228905
2007 11 18.30714 02 49 38.56 -10 59 43.0 18.1 V 703 – Catalina Sky Survey MPS 228905
2007 11 18.31573 02 49 38.10 -10 59 38.5 18.0 V 703 – Catalina Sky Survey MPS 228905
2007 11 18.32437 02 49 37.63 -10 59 34.5 18.0 V 703 – Catalina Sky Survey MPS 228905
2008 01 01.20524 02 35 32.02 -01 16 34.0 19.3 V 703 – Catalina Sky Survey MPS 233250
2008 01 01.21116 02 35 32.17 -01 16 28.5 19.1 V 703 – Catalina Sky Survey MPS 233250
